Latest Coastal Weather Observations for Smithton

IDV60701

Issued at 2:21 pm EDT Sunday 21 December 2014 (issued every 10 minutes, with the page automatically refreshed every 10 minutes)

About coastal observations | Map of coastal stations | Coastal observations for VIC | Marine services | Other Formats
Station Details ID: 091292 Name: SMITHTON AERODROME Lat: -40.83 Lon: 145.08 Height: 7.5 m
Data from the previous 72 hours. | See also: Recent months at Smithton
Date/Time
EDT
Temp

°C
Wind Pressure Rain
since 9am
mm
Weather Cloud Vis
km
Sea
Height
m
Swell
Dir
 
Speed
knots
Gust
knots
hPa Trend Height
m
Period
s
Dir
21/02:00pm 18.5 N 12 17 1014.1 - 0.0 - - - - - - -
21/01:30pm 18.0 N 9 13 1014.3 - 0.0 - - - - - - -
21/01:00pm 18.0 N 11 14 1014.3 - 0.0 - - - - - - -
21/12:30pm 17.1 NW 8 11 1015.6 - 0.0 - - - - - - -
21/12:00pm 16.6 NNW 8 10 1015.9 - 0.0 - - - - - - -
21/11:30am 16.4 N 6 7 1016.0 - 0.0 - - - - - - -
21/11:00am 16.5 N 5 7 1015.5 - 0.0 - - - - - - -
21/10:30am 16.5 NNW 6 9 1015.7 - 0.0 - - - - - - -
21/10:00am 17.1 NNW 6 11 1015.4 - 0.0 - - - - - - -
21/09:30am 16.0 WNW 4 6 1015.2 - 0.0 - - - - - - -
21/09:00am 15.5 SSW 3 5 1015.4 - 0.2 - - - - - - -
21/08:30am 14.7 SSW 3 5 1015.4 - 0.2 - - - - - - -
21/08:00am 14.4 SSW 3 6 1015.0 - 0.2 - - - - - - -
21/07:30am 12.0 SSW 4 5 1014.9 - 0.2 - - - - - - -
21/07:00am 9.5 SSW 6 8 1014.9 - 0.2 - - - - - - -
21/06:30am 7.8 SSW 4 4 1014.7 - 0.2 - - - - - - -
21/06:00am 7.8 SSW 3 4 1015.1 - 0.2 - - - - - - -
21/05:30am 5.8 SSW 7 7 1015.6 - 0.2 - - - - - - -
21/05:00am 5.3 SSW 6 6 1015.6 - 0.2 - - - - - - -
21/04:30am 5.7 SW 6 7 1015.1 - 0.2 - - - - - - -
21/04:00am 5.9 SW 6 7 1014.8 - 0.2 - - - - - - -
21/03:30am 5.9 SW 4 5 1014.7 - 0.2 - - - - - - -
21/03:00am 5.8 SW 4 5 1014.9 - 0.2 - - - - - - -
21/02:30am 7.0 SW 3 5 1015.2 - 0.2 - - - - - - -
21/02:00am 7.0 CALM 0 0 1015.3 - 0.2 - - - - - - -
21/01:30am 7.3 SW 4 5 1015.6 - 0.2 - - - - - - -
21/01:00am 8.1 SW 4 4 1015.9 - 0.2 - - - - - - -
21/12:30am 8.0 SW 4 5 1016.1 - 0.2 - - - - - - -
21/12:00am 9.3 SW 3 4 1016.4 - 0.2 - - - - - - -
 
Date/Time
EDT
Temp

°C
Wind Pressure Rain
since 9am
mm
Weather Cloud Vis
km
Sea
Height
m
Swell
Dir
 
Speed
knots
Gust
knots
hPa Trend Height
m
Period
s
Dir
20/11:30pm 9.5 WSW 4 5 1016.6 - 0.2 - - - - - - -
20/11:00pm 10.2 WSW 6 7 1016.8 - 0.2 - - - - - - -
20/10:30pm 10.9 WSW 8 9 1016.9 - 0.2 - - - - - - -
20/10:00pm 10.9 WSW 7 8 1016.7 - 0.2 - - - - - - -
20/09:30pm 11.9 WSW 8 9 1016.3 - 0.2 - - - - - - -
20/09:00pm 12.7 WSW 8 9 1016.0 - 0.2 - - - - - - -
20/08:30pm 14.4 WSW 9 11 1016.0 - 0.2 - - - - - - -
20/08:00pm 15.8 WSW 10 13 1016.0 - 0.2 - - - - - - -
20/07:30pm 16.5 WSW 12 16 1015.9 - 0.2 - - - - - - -
20/07:00pm 17.5 WSW 14 18 1015.7 - 0.2 - - - - - - -
20/06:30pm 17.8 SW 14 19 1015.6 - 0.2 - - - - - - -
20/06:00pm 17.7 WSW 15 19 1015.4 - 0.2 - - - - - - -
20/05:30pm 17.0 SW 15 18 1015.5 - 0.2 - - - - - - -
20/05:00pm 19.4 WSW 16 22 1015.6 - 0.2 - - - - - - -
20/04:30pm 19.6 SW 14 19 1015.6 - 0.2 - - - - - - -
20/04:00pm 19.6 SW 16 24 1015.7 - 0.2 - - - - - - -
20/03:30pm 18.7 WSW 16 22 1015.9 - 0.2 - - - - - - -
20/03:00pm 19.7 WSW 20 27 1016.0 - 0.2 - - - - - - -
20/02:30pm 20.0 SW 16 26 1015.9 - 0.2 - - - - - - -
20/02:29pm 19.7 SW 16 26 1015.9 - 0.2 - - - - - - -
20/02:00pm 19.2 WSW 18 25 1015.9 - 0.2 - - - - - - -
20/01:30pm 19.7 WSW 18 23 1015.8 - 0.2 - - - - - - -
20/01:00pm 18.9 WSW 18 23 1015.8 - 0.2 - - - - - - -
20/12:30pm 19.9 SW 17 24 1016.0 - 0.2 - - - - - - -
20/12:00pm 18.2 SW 16 21 1016.0 - 0.2 - - - - - - -
20/11:30am 17.6 WSW 15 20 1016.1 - 0.2 - - - - - - -
20/11:00am 17.0 SW 16 21 1016.0 - 0.2 - - - - - - -
20/10:30am 16.9 SW 15 22 1015.8 - 0.2 - - - - - - -
20/10:00am 16.0 W 15 20 1015.8 - 0.0 - - - - - - -
20/09:30am 16.4 W 15 21 1015.6 - 0.0 - - - - - - -
20/09:00am 15.5 W 13 17 1015.5 - 0.6 - - - - - - -
20/08:30am 14.4 W 11 15 1015.4 - 0.6 - - - - - - -
20/08:00am 14.1 W 12 15 1015.1 - 0.6 - - - - - - -
20/07:30am 13.8 W 9 13 1014.9 - 0.4 - - - - - - -
20/07:00am 13.6 W 8 14 1014.8 - 0.4 - - - - - - -
20/06:30am 13.6 W 8 11 1014.5 - 0.2 - - - - - - -
20/06:00am 13.4 W 10 15 1014.3 - 0.2 - - - - - - -
20/05:30am 13.1 W 9 14 1014.3 - 0.2 - - - - - - -
20/05:00am 13.0 W 10 14 1014.3 - 0.0 - - - - - - -
20/04:30am 13.3 W 10 16 1014.4 - 0.0 - - - - - - -
20/04:00am 13.4 W 11 15 1014.2 - 0.0 - - - - - - -
20/03:30am 13.7 W 11 15 1014.3 - 0.0 - - - - - - -
20/03:00am 13.6 W 10 14 1014.7 - 0.0 - - - - - - -
20/02:30am 13.2 W 8 11 1014.8 - 0.0 - - - - - - -
20/02:00am 13.3 W 9 11 1015.3 - 0.0 - - - - - - -
20/01:30am 12.7 WNW 5 6 1015.7 - 0.0 - - - - - - -
20/01:00am 12.1 W 4 5 1015.8 - 0.0 - - - - - - -
20/12:30am 12.0 W 4 5 1016.1 - 0.0 - - - - - - -
20/12:00am 11.5 W 6 7 1016.5 - 0.0 - - - - - - -
 
Date/Time
EDT
Temp

°C
Wind Pressure Rain
since 9am
mm
Weather Cloud Vis
km
Sea
Height
m
Swell
Dir
 
Speed
knots
Gust
knots
hPa Trend Height
m
Period
s
Dir
19/11:30pm 10.9 W 7 8 1016.7 - 0.0 - - - - - - -
19/11:00pm 11.3 W 7 7 1017.0 - 0.0 - - - - - - -
19/10:30pm 11.3 WNW 7 8 1017.3 - 0.0 - - - - - - -
19/10:00pm 11.7 W 5 6 1017.5 - 0.0 - - - - - - -
19/09:30pm 11.5 W 5 5 1017.3 - 0.0 - - - - - - -
19/09:00pm 11.8 W 4 5 1017.3 - 0.0 - - - - - - -
19/08:30pm 12.4 W 5 6 1017.2 - 0.0 - - - - - - -
19/08:00pm 12.9 W 9 10 1017.2 - 0.0 - - - - - - -
19/07:30pm 13.4 WSW 9 11 1016.9 - 0.0 - - - - - - -
19/07:00pm 13.4 SW 12 16 1016.8 - 0.0 - - - - - - -
19/06:30pm 14.0 SW 13 17 1016.5 - 0.0 - - - - - - -
19/06:00pm 14.7 WSW 16 21 1016.2 - 0.0 - - - - - - -
19/05:30pm 15.6 WSW 17 21 1015.8 - 0.0 - - - - - - -
19/05:00pm 15.6 WSW 18 23 1015.8 - 0.0 - - - - - - -
19/04:30pm 16.2 WSW 17 28 1015.8 - 0.0 - - - - - - -
19/04:24pm 16.2 WSW 17 28 1015.8 - 0.0 - - - - - - -
19/04:00pm 17.2 WSW 17 23 1015.9 - 0.0 - - - - - - -
19/03:30pm 16.7 WSW 16 23 1015.8 - 0.0 - - - - - - -
19/03:00pm 16.8 WSW 16 23 1015.7 - 0.0 - - - - - - -
19/02:30pm 16.0 SW 14 19 1015.6 - 0.0 - - - - - - -
19/02:00pm 16.0 WSW 17 22 1015.6 - 0.0 - - - - - - -
19/01:30pm 16.1 SW 14 20 1015.4 - 0.0 - - - - - - -
19/01:00pm 17.0 WSW 15 22 1015.4 - 0.0 - - - - - - -
19/12:30pm 16.9 WSW 14 18 1015.3 - 0.0 - - - - - - -
19/12:00pm 16.2 SW 16 22 1015.0 - 0.0 - - - - - - -
19/11:30am 16.7 WSW 18 25 1015.1 - 0.0 - - - - - - -
19/11:00am 14.6 SSW 14 20 1015.1 - 0.0 - - - - - - -
19/10:30am 15.9 SSW 15 19 1015.0 - 0.0 - - - - - - -
19/10:00am 15.0 SW 14 20 1015.0 - 0.0 - - - - - - -
19/09:30am 15.3 SW 12 18 1014.9 - 0.0 - - - - - - -
19/09:00am 14.3 SW 14 19 1014.9 - 3.6 - - - - - - -
19/08:30am 13.5 SW 10 14 1014.5 - 3.6 - - - - - - -
19/08:00am 12.2 SW 7 11 1014.2 - 3.6 - - - - - - -
19/07:30am 10.3 SSW 3 4 1013.8 - 3.6 - - - - - - -
19/07:00am 8.9 SSW 3 4 1013.6 - 3.6 - - - - - - -
19/06:30am 7.2 CALM 0 0 1013.3 - 3.6 - - - - - - -
19/06:00am 6.4 CALM 0 0 1012.8 - 3.6 - - - - - - -
19/05:30am 7.0 SSW 5 6 1012.5 - 3.6 - - - - - - -
19/05:00am 8.0 SSW 7 9 1012.0 - 3.6 - - - - - - -
19/04:30am 7.3 WSW 7 8 1011.6 - 3.6 - - - - - - -
19/04:00am 6.0 SW 5 7 1011.4 - 3.4 - - - - - - -
19/03:30am 6.5 SW 4 5 1011.1 - 3.4 - - - - - - -
19/03:00am 6.0 S 2 3 1011.0 - 3.4 - - - - - - -
19/02:30am 6.6 S 3 4 1010.7 - 3.4 - - - - - - -
19/02:00am 6.5 SW 2 4 1010.9 - 3.4 - - - - - - -
19/01:30am 6.4 SW 4 5 1010.7 - 3.4 - - - - - - -
19/01:00am 7.1 SW 2 4 1010.6 - 3.4 - - - - - - -
19/12:30am 8.1 SW 6 6 1010.3 - 3.4 - - - - - - -
19/12:00am 8.4 WSW 6 6 1010.1 - 3.4 - - - - - - -
 
Date/Time
EDT
Temp

°C
Wind Pressure Rain
since 9am
mm
Weather Cloud Vis
km
Sea
Height
m
Swell
Dir
 
Speed
knots
Gust
knots
hPa Trend Height
m
Period
s
Dir
18/11:30pm 9.7 SW 7 9 1010.0 - 3.4 - - - - - - -
18/11:00pm 9.2 WSW 8 9 1009.9 - 3.4 - - - - - - -
18/10:30pm 9.6 WSW 8 9 1009.8 - 3.4 - - - - - - -
18/10:00pm 9.9 WSW 8 10 1009.7 - 3.4 - - - - - - -
18/09:30pm 9.8 WSW 8 8 1009.3 - 3.4 - - - - - - -
18/09:00pm 11.6 SW 11 14 1008.9 - 3.4 - - - - - - -
18/08:30pm 12.4 WSW 11 15 1008.4 - 3.4 - - - - - - -
18/08:00pm 13.8 WSW 16 20 1007.9 - 3.4 - - - - - - -
18/07:30pm 14.6 WSW 14 21 1007.3 - 3.4 - - - - - - -
18/07:00pm 15.3 WSW 15 20 1006.7 - 3.4 - - - - - - -
18/06:30pm 15.4 WSW 18 22 1005.9 - 3.4 - - - - - - -
18/06:00pm 15.8 W 14 19 1005.3 - 3.4 - - - - - - -
18/05:30pm 15.5 W 16 23 1005.2 - 3.4 - - - - - - -
18/05:00pm 16.6 W 15 19 1004.8 - 3.4 - - - - - - -
18/04:30pm 15.9 W 13 18 1004.5 - 3.4 - - - - - - -
18/04:00pm 16.4 WNW 12 15 1004.3 - 3.2 - - - - - - -
18/03:30pm 14.8 WNW 10 16 1004.4 - 3.2 - - - - - - -
18/03:00pm 12.5 WNW 9 12 1004.3 - 3.2 - - - - - - -
18/02:30pm 12.7 WNW 10 14 1004.3 - 2.8 - - - - - - -

Other Formats:

Comma delimited format used in spreadsheet applications
http://www.bom.gov.au/fwo/IDV60701/IDV60701.94953.axf

JavaScript Object Notation format (JSON) in row-major order
http://www.bom.gov.au/fwo/IDV60701/IDV60701.94953.json